TimeCST,TemperatureF,Dew PointF,Humidity,Sea Level PressureIn,VisibilityMPH,Wind Direction,Wind SpeedMPH,Gust SpeedMPH,PrecipitationIn,Events,Conditions,WindDirDegrees,DateUTC
12:15 AM,42.8,26.6,53,30.27,10.0,NNW,9.2,-,N/A,,Clear,340,2014-01-21 06:15:00
12:35 AM,41.0,26.6,57,30.27,10.0,North,10.4,17.3,N/A,,Clear,350,2014-01-21 06:35:00
12:55 AM,41.0,26.6,57,30.29,10.0,North,15.0,19.6,N/A,,Clear,350,2014-01-21 06:55:00
1:15 AM,41.0,24.8,53,30.30,10.0,North,13.8,25.3,N/A,,Clear,350,2014-01-21 07:15:00
1:35 AM,41.0,24.8,53,30.30,10.0,NNW,10.4,18.4,N/A,,Clear,340,2014-01-21 07:35:00
1:55 AM,39.2,24.8,56,30.30,10.0,NNW,12.7,17.3,N/A,,Clear,340,2014-01-21 07:55:00
2:15 AM,37.4,26.6,65,30.31,10.0,North,10.4,18.4,N/A,,Clear,350,2014-01-21 08:15:00
2:35 AM,37.4,24.8,60,30.32,10.0,North,8.1,16.1,N/A,,Clear,350,2014-01-21 08:35:00
2:55 AM,35.6,24.8,65,30.33,10.0,NNW,9.2,-,N/A,,Clear,340,2014-01-21 08:55:00
3:15 AM,35.6,23.0,60,30.34,10.0,NNW,9.2,18.4,N/A,,Clear,340,2014-01-21 09:15:00
3:35 AM,35.6,21.2,56,30.34,10.0,NNW,12.7,21.9,N/A,,Clear,340,2014-01-21 09:35:00
3:55 AM,33.8,19.4,56,30.34,10.0,NNW,11.5,19.6,N/A,,Clear,330,2014-01-21 09:55:00
4:15 AM,33.8,17.6,52,30.34,10.0,NNW,13.8,21.9,N/A,,Clear,340,2014-01-21 10:15:00
4:35 AM,32.0,17.6,55,30.35,10.0,NNW,16.1,25.3,N/A,,Clear,340,2014-01-21 10:35:00
4:55 AM,32.0,15.8,51,30.36,10.0,North,18.4,28.8,N/A,,Clear,350,2014-01-21 10:55:00
5:15 AM,32.0,14.0,48,30.37,10.0,North,17.3,25.3,N/A,,Clear,350,2014-01-21 11:15:00
5:35 AM,30.2,12.2,47,30.37,10.0,North,19.6,25.3,N/A,,Clear,350,2014-01-21 11:35:00
5:55 AM,30.2,12.2,47,30.38,10.0,North,15.0,24.2,N/A,,Clear,350,2014-01-21 11:55:00
6:15 AM,28.4,12.2,51,30.40,10.0,NNW,15.0,25.3,N/A,,Clear,340,2014-01-21 12:15:00
6:35 AM,28.4,12.2,51,30.40,10.0,NNW,15.0,21.9,N/A,,Clear,340,2014-01-21 12:35:00
6:55 AM,26.6,12.2,55,30.41,10.0,North,13.8,21.9,N/A,,Clear,360,2014-01-21 12:55:00
7:15 AM,26.6,12.2,55,30.42,10.0,North,23.0,29.9,N/A,,Clear,360,2014-01-21 13:15:00
7:35 AM,24.8,10.4,54,30.44,10.0,North,19.6,27.6,N/A,,Clear,360,2014-01-21 13:35:00
7:55 AM,24.8,8.6,50,30.44,10.0,North,16.1,29.9,N/A,,Clear,360,2014-01-21 13:55:00
8:15 AM,23.0,8.6,54,30.44,10.0,North,13.8,25.3,N/A,,Clear,360,2014-01-21 14:15:00
8:35 AM,24.8,10.4,54,30.45,10.0,North,15.0,23.0,N/A,,Clear,360,2014-01-21 14:35:00
8:55 AM,23.0,6.8,50,30.45,10.0,North,19.6,26.5,N/A,,Clear,10,2014-01-21 14:55:00
9:15 AM,23.0,5.0,46,30.46,10.0,North,21.9,32.2,N/A,,Clear,360,2014-01-21 15:15:00
9:35 AM,24.8,8.6,50,30.47,10.0,North,17.3,28.8,N/A,,Clear,350,2014-01-21 15:35:00
9:55 AM,24.8,6.8,46,30.47,10.0,North,13.8,27.6,N/A,,Clear,10,2014-01-21 15:55:00
10:15 AM,26.6,8.6,47,30.46,10.0,North,12.7,23.0,N/A,,Clear,350,2014-01-21 16:15:00
10:35 AM,28.4,8.6,43,30.46,10.0,North,15.0,20.7,N/A,,Clear,10,2014-01-21 16:35:00
10:55 AM,28.4,8.6,43,30.46,10.0,North,12.7,17.3,N/A,,Clear,360,2014-01-21 16:55:00
11:15 AM,28.4,8.6,43,30.45,10.0,North,13.8,18.4,N/A,,Clear,360,2014-01-21 17:15:00
11:35 AM,30.2,8.6,40,30.44,10.0,North,11.5,19.6,N/A,,Clear,360,2014-01-21 17:35:00
11:55 AM,30.2,8.6,40,30.43,10.0,NNW,8.1,16.1,N/A,,Clear,340,2014-01-21 17:55:00
12:15 PM,30.2,8.6,40,30.41,10.0,NNW,8.1,17.3,N/A,,Clear,330,2014-01-21 18:15:00
12:35 PM,32.0,8.6,38,30.39,10.0,North,9.2,-,N/A,,Clear,350,2014-01-21 18:35:00
12:55 PM,32.0,10.4,41,30.37,10.0,North,9.2,-,N/A,,Clear,10,2014-01-21 18:55:00
1:15 PM,32.0,8.6,38,30.36,10.0,North,6.9,-,N/A,,Clear,350,2014-01-21 19:15:00
1:35 PM,32.0,8.6,38,30.34,10.0,NE,4.6,-,N/A,,Clear,40,2014-01-21 19:35:00
1:55 PM,32.0,6.8,35,30.33,10.0,North,3.5,-,N/A,,Clear,10,2014-01-21 19:55:00
2:15 PM,33.8,8.6,35,30.31,10.0,NW,4.6,-,N/A,,Clear,320,2014-01-21 20:15:00
2:35 PM,33.8,8.6,35,30.30,10.0,Calm,Calm,-,N/A,,Clear,0,2014-01-21 20:35:00
2:55 PM,33.8,8.6,35,30.29,10.0,Calm,Calm,-,N/A,,Clear,0,2014-01-21 20:55:00
3:15 PM,35.6,8.6,33,30.28,10.0,Calm,Calm,-,N/A,,Clear,0,2014-01-21 21:15:00
3:35 PM,35.6,8.6,33,30.27,10.0,Calm,Calm,-,N/A,,Clear,0,2014-01-21 21:35:00
3:55 PM,35.6,8.6,33,30.27,10.0,Calm,Calm,-,N/A,,Clear,0,2014-01-21 21:55:00
4:15 PM,35.6,8.6,33,30.26,10.0,Calm,Calm,-,N/A,,Clear,0,2014-01-21 22:15:00
4:35 PM,35.6,8.6,33,30.25,10.0,SSW,3.5,-,N/A,,Clear,200,2014-01-21 22:35:00
4:55 PM,35.6,8.6,33,30.25,10.0,Calm,Calm,-,N/A,,Clear,0,2014-01-21 22:55:00
5:15 PM,35.6,10.4,35,30.24,10.0,SE,3.5,-,N/A,,Clear,140,2014-01-21 23:15:00
5:35 PM,33.8,10.4,38,30.23,10.0,SSE,4.6,-,N/A,,Clear,150,2014-01-21 23:35:00
5:55 PM,32.0,10.4,41,30.22,10.0,SSE,5.8,-,N/A,,Clear,160,2014-01-21 23:55:00
6:15 PM,32.0,10.4,41,30.22,10.0,South,3.5,-,N/A,,Clear,180,2014-01-22 00:15:00
6:35 PM,30.2,10.4,44,30.22,10.0,SSE,3.5,-,N/A,,Clear,160,2014-01-22 00:35:00
6:55 PM,30.2,10.4,44,30.22,10.0,SSE,4.6,-,N/A,,Clear,150,2014-01-22 00:55:00
7:15 PM,30.2,12.2,47,30.21,10.0,South,5.8,-,N/A,,Clear,170,2014-01-22 01:15:00
7:35 PM,30.2,12.2,47,30.21,10.0,SSE,5.8,-,N/A,,Clear,160,2014-01-22 01:35:00
7:55 PM,30.2,12.2,47,30.20,10.0,South,6.9,-,N/A,,Clear,170,2014-01-22 01:55:00
8:15 PM,30.2,12.2,47,30.20,10.0,SSE,5.8,-,N/A,,Clear,150,2014-01-22 02:15:00
8:35 PM,28.4,12.2,51,30.19,10.0,SSE,6.9,-,N/A,,Clear,150,2014-01-22 02:35:00
8:55 PM,28.4,12.2,51,30.18,10.0,South,5.8,-,N/A,,Clear,170,2014-01-22 02:55:00
9:15 PM,28.4,10.4,47,30.18,10.0,SSE,4.6,-,N/A,,Clear,160,2014-01-22 03:15:00
9:35 PM,28.4,10.4,47,30.18,10.0,ESE,5.8,-,N/A,,Clear,110,2014-01-22 03:35:00
9:55 PM,28.4,10.4,47,30.18,10.0,SE,4.6,-,N/A,,Clear,130,2014-01-22 03:55:00
10:15 PM,26.6,10.4,51,30.18,10.0,SSE,5.8,-,N/A,,Clear,160,2014-01-22 04:15:00
10:35 PM,28.4,12.2,51,30.17,10.0,SSE,6.9,-,N/A,,Clear,150,2014-01-22 04:35:00
10:55 PM,26.6,10.4,51,30.18,10.0,ESE,4.6,-,N/A,,Clear,120,2014-01-22 04:55:00
11:15 PM,26.6,10.4,51,30.18,10.0,ESE,5.8,-,N/A,,Clear,120,2014-01-22 05:15:00
11:35 PM,26.6,10.4,51,30.18,10.0,ESE,6.9,-,N/A,,Clear,110,2014-01-22 05:35:00
11:55 PM,26.6,10.4,51,30.17,10.0,SE,6.9,-,N/A,,Clear,140,2014-01-22 05:55:00